Miscellaneous Local Product
Issued by NWS North Platte, NE

Home | Current Version | Previous Version | Graphics & Text | Print | Product List | Glossary On
Versions: 1 2 3 4 5 6 7 8 9 10 11 12 13 14 15 16 17 18 19 20 21 22 23 24 25 26 27 28 29 30 31 32 33 34 35 36 37 38 39 40 41 42 43 44 45 46 47 48 49 50
302
AXUS43 KLBF 241210
MISLBF


WESTERN AND NORTH CENTRAL NEBRASKA HOURLY WEATHER ROUNDUP
NATIONAL WEATHER SERVICE NORTH PLATTE NE
700 AM CDT TUE MAY 24 2016

NOTE: "FAIR" INDICATES FEW OR NO CLOUDS BELOW 12,000 FEET WITH NO
SIGNIFICANT WEATHER AND/OR OBSTRUCTIONS TO VISIBILITY.

NOTE: STATIONS NOT REPORTING VARIABLES SUCH AS SKY/WEATHER OR
PRESSURE ARE PROVIDED BY RAWS AND APRS NETWORKS AND ARE NOT UNDER
NATIONAL WEATHER SERVICE QUALITY CONTROL.

...OBSERVATIONS IN AND NEAR THE EASTERN PANHANDLE OF NEBRASKA...

CITY           SKY/WX    TMP DP  RH WIND       PRES   REMARKS
PINE RIDGE     CLEAR     36  32  85 CALM      29.89R
CHADRON        CLEAR     42  38  85 S6        29.89R
ALLIANCE       CLEAR     35  34  96 S8        29.90R WCI  29
SIDNEY         CLOUDY    44  40  85 W5        29.93R
CRESCENT LAKE    N/A     46  46 100 CALM        N/A
BIG SPRINGS      N/A     46  43  90 CALM        N/A
$$

...OBSERVATIONS IN NORTHERN NEBRASKA AND FAR SOUTHERN SOUTH DAKOTA...

CITY           SKY/WX    TMP DP  RH WIND       PRES   REMARKS
WINNER         FAIR      51  43  74 S14       29.85R
VALENTINE      CLEAR     47  42  83 SW7       29.88R
THEDFORD       CLOUDY    49  46  90 SW3       29.91S
AINSWORTH      CLEAR     47  43  84 SW6       29.89R
O`NEILL        CLOUDY    52  48  85 S8        29.89R
ORD            CLOUDY    54  52  93 CALM      29.89R
BROKEN BOW     CLOUDY    51  48  89 N3        29.90R
BUTTE            N/A     55  44  67 SW5         N/A
CHAMBERS         N/A     54  49  82 CALM        N/A
EWING            N/A     57  56  97 SW3         N/A
$$

...OBSERVATIONS IN SOUTHWEST NEBRASKA AND FAR NORTHEAST COLORADO...

CITY           SKY/WX    TMP DP  RH WIND       PRES   REMARKS
WRAY           PTSUNNY   54  50  87 SE3       29.91R
HOLYOKE        FAIR      54  46  76 CALM      29.92R
IMPERIAL       CLOUDY    55  48  77 W5        29.88R
OGALLALA       CLOUDY    45  42  86 SW3       29.91R
NORTH PLATTE   CLOUDY    54  47  77 VRB5      29.85F
MCCOOK         CLOUDY    55  48  77 E5        29.86F
LEXINGTON      CLOUDY    56  51  82 W3        29.90S
PAXTON           N/A     52  48  87 CALM        N/A
STAPLETON        N/A     50  46  85 CALM        N/A
GOTHENBURG       N/A     57  47  70 CALM        N/A
CALLAWAY         N/A     52  48  87 S6          N/A
$$

...OBSERVATIONS IN CENTRAL LINCOLN COUNTY AREA...

CITY           SKY/WX    TMP DP  RH WIND       PRES   REMARKS
N.P. AIRPORT   CLOUDY    54  47  77 VRB5      29.85F
N.P. DOWNTOWN    N/A     56  48  74 CALM        N/A
N.P. SOUTHEAST   N/A     55  48  77 CALM        N/A
N.P. HILLCREST   N/A     57  47  69 E12         N/A
$$

...SOME OBSERVATIONS FROM AROUND THE REGION...

CITY           SKY/WX    TMP DP  RH WIND       PRES   REMARKS
DENVER         PTCLDY    45  40  82 SW9       29.95R
LARAMIE        CLOUDY    31  30  96 S3        29.98S
CHEYENNE       CLEAR     40  35  83 NW6       29.95S
SCOTTSBLUFF    CLEAR     39  36  89 N6        29.91R WCI  35
RAPID CITY     CLEAR     47  36  65 NW10      29.89R
BISMARCK       CLEAR     50  44  80 W7        29.84R
PIERRE         CLEAR     49  45  86 NE9       29.81R
SIOUX FALLS    CLOUDY    62  60  93 S8        29.84R FOG
OMAHA          CLOUDY    63  60  90 SW3       29.90R
GRAND ISLAND   LGT RAIN  60  59  96 N8        29.89R
KANSAS CITY    TSTM      63  60  90 S9        29.92F FOG
WICHITA        CLOUDY    69  66  90 NE8       29.90R
OKLAHOMA CITY  CLOUDY    72  62  71 S14       29.84R
DALLAS         CLOUDY    75  69  81 S5        29.92R
AMARILLO       CLEAR     65  63  93 S15       29.88R FOG
DODGE CITY     CLOUDY    65  65 100 NE9       29.86R FOG
HAYS           CLOUDY    59  48  67 E22G28    29.87F
GOODLAND       PTCLDY    52  45  77 E7        29.88R
$$




USA.gov is the U.S. government's official web portal to all federal, state and local government web resources and services.